ION SCV004 ELYSIAN ELEONORA

operational
NORAD ID: 50993 Int'l Des: 2022-002 Owner: DORBIT Country: I
LEOCIRCULARRETROGRADESSO

About ION SCV004 ELYSIAN ELEONORA

Description loading...

Live Position

Loading 3D Globe...

Upcoming Passes

Altitude History

Altitude vs Time

uPlot chart will show altitude changes over time

Two-Line Element Set

1 50993U 22002K 26061.16435304 .00006858 00000-0 24402-3 0 9995
2 50993 97.2984 120.8457 0008012 27.7472 332.4195 15.29255225228933
Epoch: Mar 2, 2026 • Age: 39 hours

Current Status

Altitude 486.8 km
Velocity 7.63 km/s
Sub-Earth Point 71.24°N, 76.73°E
Launch Date Jan 13, 2022
Age 4.1 years
Type other

Technical Details

Classification Payload
Mass 150.00 kg
Dry Mass 150.00 kg
Total Mass 220.00 kg
Length 0.40 m
Diameter 0.40 m
Span 0.40 m
Shape Box
Manufacturer DORBIT
Bus Type ION-SC
Phase Status In Orbit
Owner/State DORBIT/I

Large Constellations

Loading constellations...